Bega Observation History
Time Wind Speed Temp Pressure Rel. Hum Rain
03/02:00pm ENE 8-10 kts 23.6°c 1005.7 hPa 46% 0.0mm
03/01:30pm ESE 6-11 kts 23.0°c 1006.1 hPa 52% 0.0mm
03/01:00pm ESE 5-9 kts 23.2°c 1006.9 hPa 47% 0.0mm
03/12:30pm SE 1-4 kts 22.4°c 1007.6 hPa 48% 0.0mm
03/12:00pm E 3-6 kts 21.9°c 1007.6 hPa 58% 0.0mm
03/11:30am S 3-5 kts 19.3°c 1008.3 hPa 64% 0.0mm
03/11:00am S 5-6 kts 18.4°c 1008.9 hPa 70% 0.0mm
03/10:30am SSE 1-4 kts 18.4°c 1009.0 hPa 67% 0.0mm
03/10:00am NE 2-4 kts 17.0°c 1008.8 hPa 77% 0.0mm
03/09:30am NNE 3-5 kts 14.1°c 1008.4 hPa 86% 0.0mm
03/09:00am NE 1-3 kts 12.9°c 1008.7 hPa 90% 1.8mm
03/08:30am ENE 3-4 kts 12.3°c 1008.3 hPa 91% 1.8mm
03/08:00am S 4-5 kts 11.3°c 1007.9 hPa 90% 1.8mm
03/07:30am N 2-4 kts 10.5°c 1008.2 hPa 93% 1.8mm
03/07:00am SSW 2-5 kts 9.9°c 1007.7 hPa 94% 1.8mm
03/06:30am W 5-8 kts 10.2°c 1007.7 hPa 86% 1.8mm
03/06:00am WSW 3-4 kts 11.5°c 1007.5 hPa 89% 1.8mm
03/05:30am NE 3-6 kts 11.3°c 1007.3 hPa 84% 1.8mm
03/05:00am SE 2-4 kts 12.2°c 1007.1 hPa 86% 1.8mm
03/04:30am NW 6-9 kts 15.9°c 1006.5 hPa 68% 1.8mm
03/04:00am N 2-4 kts 14.4°c 1006.8 hPa 85% 1.8mm
03/03:30am NE 6-9 kts 12.4°c 1006.9 hPa 90% 1.8mm
03/03:00am NNW 5-8 kts 13.2°c 1007.0 hPa 89% 1.8mm
03/02:30am W 2-5 kts 13.8°c 1007.3 hPa 97% 1.8mm
03/02:00am E 4-5 kts 12.9°c 1007.4 hPa 96% 1.8mm
03/01:30am W 5-6 kts 14.3°c 1007.1 hPa 84% 1.8mm
03/01:00am S 3-4 kts 13.4°c 1007.1 hPa 99% 1.8mm
03/12:30am NW 3-7 kts 13.9°c 1007.2 hPa 99% 1.6mm
03/12:00am SW 4-7 kts 15.1°c 1007.1 hPa 99% 1.6mm
Time Wind Speed Temp Pressure Rel. Hum Rain
02/11:30pm N 4-5 kts 15.3°c 1007.5 hPa 99% 1.6mm
02/11:00pm W 5-8 kts 14.8°c 1007.7 hPa 99% 1.6mm
02/10:30pm W 4-6 kts 16.0°c 1007.6 hPa 97% 1.6mm
02/10:00pm W 3-6 kts 17.1°c 1007.5 hPa 99% 1.6mm
02/09:30pm N 2-4 kts 17.1°c 1007.4 hPa 96% 1.6mm
02/09:00pm CALM 0 kts 17.7°c 1007.3 hPa 96% 1.6mm
02/08:30pm SSW 4-5 kts 17.3°c 1007.1 hPa 93% 1.6mm
02/08:00pm WNW 3-4 kts 18.7°c 1006.9 hPa 91% 1.6mm
02/07:30pm N 5-8 kts 19.1°c 1006.7 hPa 88% 1.6mm
02/07:00pm N 7-11 kts 19.6°c 1006.5 hPa 87% 1.6mm
02/06:30pm N 10-14 kts 20.3°c 1006.4 hPa 84% 1.6mm
02/06:00pm N 9-13 kts 20.7°c 1006.5 hPa 84% 1.6mm
02/05:30pm NNE 7-10 kts 20.6°c 1006.8 hPa 84% 1.6mm
02/05:00pm NNE 8-11 kts 20.2°c 1006.9 hPa 88% 1.6mm
02/04:30pm N 10-14 kts 19.9°c 1007.2 hPa 88% 1.6mm
02/04:00pm N 5-8 kts 19.7°c 1007.5 hPa 90% 1.6mm
02/03:30pm NNE 5-7 kts 19.5°c 1007.6 hPa 93% 1.6mm
02/03:00pm N 8-10 kts 19.6°c 1008.1 hPa 89% 1.0mm
02/02:30pm N 10-16 kts 19.7°c 1008.3 hPa 86% 0.8mm
02/02:00pm N 8-11 kts 20.0°c 1008.9 hPa 85% 0.8mm
02/01:30pm N 7-10 kts 20.3°c 1009.4 hPa 83% 0.8mm
02/01:00pm N 8-12 kts 20.8°c 1009.9 hPa 82% 0.6mm
02/12:30pm NNE 6-8 kts 21.3°c 1010.4 hPa 84% 0.6mm
02/12:00pm NNE 5-8 kts 20.8°c 1010.8 hPa 86% 0.6mm
02/11:30am N 3-5 kts 20.8°c 1011.4 hPa 83% 0.2mm
02/11:00am NE 3-5 kts 20.9°c 1011.8 hPa 86% 0.2mm
02/10:30am NNE 10-14 kts 20.5°c 1012.6 hPa 85% 0.2mm
02/10:00am N 4-6 kts 19.6°c 1013.0 hPa 96% 0.2mm
02/09:30am NE 5-8 kts 19.2°c 1012.7 hPa 95% 0.0mm
02/09:00am CALM 0-4 kts 18.4°c 1012.9 hPa 99% 0.2mm
02/08:30am CALM 0 kts 17.5°c 1012.8 hPa 99% 0.2mm
02/08:00am SSW 3-4 kts 17.0°c 1013.1 hPa 99% 0.2mm
02/07:30am S 2-5 kts 16.9°c 1012.9 hPa 99% 0.2mm
02/07:00am CALM 0-3 kts 17.2°c 1013.0 hPa 99% 0.2mm
02/06:30am NNE 1-4 kts 16.7°c 1013.1 hPa 97% 0.2mm
02/06:00am N 1-4 kts 17.2°c 1013.3 hPa 98% 0.2mm
02/05:30am W 2-6 kts 17.7°c 1013.5 hPa 98% 0.2mm
02/05:00am WSW 2-4 kts 18.6°c 1013.5 hPa 96% 0.2mm
02/04:30am NNW 1-3 kts 17.9°c 1014.0 hPa 94% 0.2mm
02/04:00am CALM 0 kts 18.6°c 1014.2 hPa 93% 0.2mm
02/03:30am SSW 4-6 kts 18.5°c 1014.3 hPa 93% 0.2mm
02/03:00am CALM 0 kts 19.3°c 1015.0 hPa 89% 0.2mm
02/02:30am NE 2-4 kts 19.4°c 1015.3 hPa 88% 0.2mm
02/02:00am NNE 3-4 kts 19.7°c 1015.6 hPa 86% 0.2mm
02/01:30am N 5-10 kts 20.3°c 1016.2 hPa 84% 0.2mm
02/01:00am N 4-6 kts 20.2°c 1016.4 hPa 84% 0.2mm
02/12:30am NNE 4 kts 20.1°c 1016.5 hPa 85% 0.2mm
02/12:00am NNE 5-6 kts 20.2°c 1016.8 hPa 85% 0.2mm
Time Wind Speed Temp Pressure Rel. Hum Rain
01/11:30pm NE 5-7 kts 20.3°c 1017.1 hPa 87% 0.2mm
01/11:00pm NE 6-9 kts 20.4°c 1017.3 hPa 88% 0.2mm
01/10:30pm NE 5-7 kts 20.3°c 1017.3 hPa 88% 0.2mm
01/10:00pm NE 7-11 kts 20.6°c 1017.3 hPa 87% 0.2mm
01/09:30pm NE 6-8 kts 20.6°c 1017.3 hPa 84% 0.2mm
01/09:00pm NE 11-15 kts 20.9°c 1017.0 hPa 83% 0.2mm
01/08:30pm NE 9-16 kts 21.0°c 1016.9 hPa 82% 0.2mm
01/08:00pm NE 8-13 kts 20.9°c 1016.8 hPa 83% 0.2mm
01/07:30pm NE 11-16 kts 20.8°c 1016.6 hPa 82% 0.2mm
01/07:00pm NE 10-13 kts 21.0°c 1016.7 hPa 82% 0.2mm
01/06:30pm NE 11-16 kts 20.9°c 1016.4 hPa 81% 0.2mm
01/06:00pm NE 12-17 kts 21.2°c 1016.3 hPa 80% 0.2mm
01/05:30pm NE 12-16 kts 21.5°c 1016.3 hPa 78% 0.2mm
01/05:00pm NE 15-19 kts 21.7°c 1016.2 hPa 75% 0.2mm
01/04:30pm NE 15-20 kts 21.7°c 1016.1 hPa 75% 0.2mm
01/04:00pm NE 14-18 kts 22.7°c 1016.3 hPa 71% 0.2mm
01/03:30pm ENE 12-17 kts 23.0°c 1016.7 hPa 72% 0.2mm
01/03:00pm NE 12-16 kts 23.6°c 1016.8 hPa 70% 0.2mm
01/02:30pm ENE 11-17 kts 23.2°c 1017.0 hPa 72% 0.2mm
01/02:00pm NE 8-14 kts 23.7°c 1017.1 hPa 66% 0.2mm
01/01:30pm NE 6-10 kts 24.0°c 1018.0 hPa 69% 0.2mm
01/01:00pm NE 7-10 kts 22.7°c 1018.6 hPa 71% 0.2mm
01/12:30pm E 5-7 kts 21.7°c 1019.0 hPa 79% 0.0mm
01/12:00pm SE 4-6 kts 21.1°c 1019.5 hPa 83% 0.0mm
01/11:30am CALM 0 kts 19.4°c 1020.2 hPa 85% 0.0mm
01/11:00am E 1-4 kts 19.0°c 1020.4 hPa 85% 0.0mm
01/10:30am ENE 3-4 kts 19.0°c 1020.6 hPa 89% 0.0mm
01/10:00am SE 3-4 kts 17.9°c 1020.6 hPa 93% 0.0mm
01/09:30am SSW 1-4 kts 17.3°c 1020.7 hPa 98% 0.0mm
01/09:00am CALM 0 kts 16.6°c 1020.6 hPa 99% 1.4mm
01/08:30am CALM 0 kts 16.1°c 1020.5 hPa 99% 1.4mm
01/08:00am CALM 0 kts 16.0°c 1020.3 hPa 99% 1.4mm
01/07:30am NNE 2-4 kts 15.7°c 1020.1 hPa 99% 1.4mm
01/07:00am CALM 0 kts 15.6°c 1019.9 hPa 99% 1.4mm
01/06:30am CALM 0 kts 15.5°c 1019.7 hPa 99% 1.4mm
01/06:00am CALM 0 kts 15.5°c 1019.4 hPa 99% 1.4mm
01/05:30am CALM 0 kts 15.6°c 1019.5 hPa 99% 1.4mm
01/05:00am CALM 0 kts 15.5°c 1019.4 hPa 99% 1.4mm
01/04:30am SW 3-4 kts 15.5°c 1019.3 hPa 99% 1.4mm
01/04:00am CALM 0 kts 15.5°c 1019.4 hPa 99% 1.4mm
01/03:30am SW 4-5 kts 15.5°c 1019.5 hPa 99% 1.0mm
01/03:00am SW 4-5 kts 15.5°c 1019.6 hPa 99% 0.8mm
01/02:30am SW 4-6 kts 15.5°c 1019.8 hPa 99% 0.8mm
01/02:00am WSW 4-5 kts 15.5°c 1020.0 hPa 99% 0.6mm
01/01:30am SW 4-5 kts 15.8°c 1020.0 hPa 99% 0.2mm
01/01:00am SW 4 kts 16.2°c 1019.9 hPa 99% 0.2mm
01/12:30am SSW 3-4 kts 16.4°c 1020.0 hPa 99% 0.0mm
01/12:00am S 3-4 kts 16.6°c 1020.0 hPa 97% 0.0mm